Time,TemperatureF,DewpointF,PressureIn,WindDirection,WindDirectionDegrees,WindSpeedMPH,WindSpeedGustMPH,Humidity,HourlyPrecipIn,Conditions,Clouds,dailyrainin,SoftwareType,DateUTC
2013-08-30 00:22:00,67.0,-99.9,-100.00,SSE,167,0.0,1.0,-999,-99.99,,,-99.99,,2013-08-30 06:22:00,
2013-08-30 00:42:00,67.0,-99.9,-100.00,SSW,197,0.0,1.0,-999,-99.99,,,-99.99,,2013-08-30 06:42:00,
2013-08-30 00:53:00,68.0,-99.9,-100.00,NE,41,1.0,1.0,-999,-99.99,,,-99.99,,2013-08-30 06:53:00,
2013-08-30 01:02:00,68.0,-99.9,-100.00,NE,41,1.0,1.0,-999,-99.99,,,-99.99,,2013-08-30 07:02:00,
2013-08-30 01:12:00,68.0,-99.9,-100.00,NE,41,1.0,1.0,-999,-99.99,,,-99.99,,2013-08-30 07:12:00,
2013-08-30 01:53:00,65.0,-99.9,-100.00,NE,44,1.0,1.0,-999,-99.99,,,-99.99,,2013-08-30 07:53:00,
2013-08-30 02:12:00,67.0,-99.9,-100.00,WNW,293,0.0,1.0,-999,-99.99,,,-99.99,,2013-08-30 08:12:00,
2013-08-30 02:23:00,66.0,-99.9,-100.00,NE,44,0.0,2.0,-999,-99.99,,,-99.99,,2013-08-30 08:23:00,
2013-08-30 02:32:00,66.0,-99.9,-100.00,NE,44,0.0,2.0,-999,-99.99,,,-99.99,,2013-08-30 08:32:00,
2013-08-30 03:12:00,67.0,-99.9,-100.00,WSW,239,3.0,3.0,-999,-99.99,,,-99.99,,2013-08-30 09:12:00,
2013-08-30 03:22:00,67.0,-99.9,-100.00,WSW,239,3.0,3.0,-999,-99.99,,,-99.99,,2013-08-30 09:22:00,
2013-08-30 04:53:00,64.0,-99.9,-100.00,NNW,338,0.0,0.0,-999,-99.99,,,-99.99,,2013-08-30 10:53:00,
2013-08-30 05:12:00,63.0,-99.9,-100.00,NW,312,1.0,1.0,-999,-99.99,,,-99.99,,2013-08-30 11:12:00,
2013-08-30 05:53:00,63.0,-99.9,-100.00,North,359,2.0,2.0,-999,-99.99,,,-99.99,,2013-08-30 11:53:00,
2013-08-30 06:12:00,63.0,-99.9,-100.00,NNE,20,0.0,2.0,-999,-99.99,,,-99.99,,2013-08-30 12:12:00,
2013-08-30 06:20:00,62.0,-99.9,-100.00,NE,35,0.0,1.0,-999,-99.99,,,-99.99,,2013-08-30 12:20:00,
2013-08-30 07:11:00,62.0,-99.9,-100.00,NE,35,0.0,1.0,-999,-99.99,,,-99.99,,2013-08-30 13:11:00,
2013-08-30 11:13:00,77.0,-99.9,-100.00,WNW,285,1.0,2.0,-999,-99.99,,,-99.99,,2013-08-30 17:13:00,
2013-08-30 11:23:00,77.0,-99.9,-100.00,WNW,285,1.0,2.0,-999,-99.99,,,-99.99,,2013-08-30 17:23:00,
2013-08-30 11:40:00,87.0,-99.9,-100.00,NW,324,0.0,2.0,-999,-99.99,,,-99.99,,2013-08-30 17:40:00,
2013-08-30 11:53:00,80.0,-99.9,-100.00,SW,222,1.0,2.0,-999,-99.99,,,-99.99,,2013-08-30 17:53:00,
2013-08-30 12:02:00,80.0,-99.9,-100.00,SW,222,1.0,2.0,-999,-99.99,,,-99.99,,2013-08-30 18:02:00,
2013-08-30 12:22:00,87.0,-99.9,-100.00,NW,324,0.0,2.0,-999,-99.99,,,-99.99,,2013-08-30 18:22:00,
2013-08-30 12:32:00,87.0,-99.9,-100.00,NW,324,0.0,2.0,-999,-99.99,,,-99.99,,2013-08-30 18:32:00,
2013-08-30 13:22:00,91.0,-99.9,-100.00,WNW,300,1.0,2.0,-999,-99.99,,,-99.99,,2013-08-30 19:22:00,
2013-08-30 13:32:00,91.0,-99.9,-100.00,WNW,300,1.0,2.0,-999,-99.99,,,-99.99,,2013-08-30 19:32:00,
2013-08-30 16:54:00,97.0,-99.9,-100.00,NNW,328,0.0,1.0,-999,-99.99,,,-99.99,,2013-08-30 22:54:00,
2013-08-30 18:20:00,85.0,-99.9,-100.00,NNE,32,0.0,1.0,-999,-99.99,,,-99.99,,2013-08-31 00:20:00,
2013-08-30 19:11:00,85.0,-99.9,-100.00,NNE,32,0.0,1.0,-999,-99.99,,,-99.99,,2013-08-31 01:11:00,
2013-08-30 19:53:00,82.0,-99.9,-100.00,NNE,23,0.0,1.0,-999,-99.99,,,-99.99,,2013-08-31 01:53:00,
2013-08-30 20:02:00,82.0,-99.9,-100.00,NNE,23,0.0,1.0,-999,-99.99,,,-99.99,,2013-08-31 02:02:00,
2013-08-30 22:40:00,75.0,-99.9,-100.00,SW,218,1.0,1.0,-999,-99.99,,,-99.99,,2013-08-31 04:40:00,
2013-08-30 23:23:00,75.0,-99.9,-100.00,SW,218,1.0,1.0,-999,-99.99,,,-99.99,,2013-08-31 05:23:00,
2013-08-30 23:34:00,75.0,-99.9,-100.00,SW,218,1.0,1.0,-999,-99.99,,,-99.99,,2013-08-31 05:34:00,